Volver al catálogo

CZ-6A DEB

ActivoPO
NORAD 61454·DEBRIS·🇨🇳 China

Lanzado Aug 6, 2024 desde Taiyuan Satellite Launch Center

Loading…

Próximos Pases (próximas 24 horas)

TLE

ActualizadoSource: Space-Track

Época: Sep 14, 2026, 08:23 UTC

1 61454U 24140ZL  26257.34960850  .00003466  00000-0  12864-2 0  9990
2 61454  88.6122 227.7546 0024530 267.4992  92.3396 14.31849838106676

Sigue CZ-6A DEB en tiempo real con AllMySat

Download on the App Store